Location: Austin
(30.3000°N, 97.7500°W)
Time: 12:16:57
(UTC-05:00)

Iridium 51 - Pass Details

Date: 03 April 2024
Orbit: 434 x 642 km, 86.4° (Epoch: 21 April)

Event Time Altitude Azimuth Distance (km) Brightness Sun altitude
Rises 06:47:03 0° 189° (S) 2,683 7.6 -7.2°
Reaches altitude 10° 06:49:17 10° 194° (SSW) 1,758 6.7 -6.8°
Maximum altitude 06:53:02 54° 272° (W) 610 4.2 -6.0°
Drops below altitude 10° 06:56:34 10° 351° (N) 1,653 6.8 -5.2°
Sets 06:58:37 0° 356° (N) 2,505 7.8 -4.8°
